• în Republica Moldova
  • Lista ţărilor
  • Pe 7 zile
  • Temperatura apei
  • Hartă satelitară
  • Meteo pe hartă
  • Widget-uri
  • user-avatar
    Intrare

    Meteo pe oră la Sidi Bu-l-Abbas

    Astăzi, 23 Iulie, Duminică

    Timp Temperatura Precipitaţii Vânt Presiune Umiditate
    00:00 +29°C° 0 mm 1 m/s 721 mmHg 39%
    01:00 +28°C° 0 mm 1 m/s 721 mmHg 41%
    02:00 +28°C° 0 mm 1 m/s 721 mmHg 44%
    03:00 +27°C° 0 mm 1 m/s 721 mmHg 46%
    04:00 +27°C° 0 mm 1 m/s 721 mmHg 46%
    05:00 +27°C° 0 mm 1 m/s 721 mmHg 46%
    06:00 +27°C° 0 mm 1 m/s 721 mmHg 46%
    07:00 +29°C° 0 mm 1 m/s 721 mmHg 41%
    08:00 +31°C° 0 mm 2 m/s 722 mmHg 35%
    09:00 +34°C° 0 mm 2 m/s 722 mmHg 29%
    10:00 +35°C° 0 mm 3 m/s 722 mmHg 27%
    11:00 +37°C° 0 mm 4 m/s 722 mmHg 25%
    12:00 +39°C° 0 mm 5 m/s 723 mmHg 23%
    13:00 +37°C° 0 mm 4 m/s 722 mmHg 24%
    14:00 +37°C° 0 mm 4 m/s 722 mmHg 26%
    15:00 +36°C° 0 mm 4 m/s 722 mmHg 27%
    16:00 +36°C° 0 mm 4 m/s 722 mmHg 28%
    17:00 +35°C° 0 mm 3 m/s 722 mmHg 30%
    18:00 +34°C° 0 mm 3 m/s 722 mmHg 32%
    19:00 +34°C° 0 mm 2 m/s 722 mmHg 34%
    20:00 +32°C° 0 mm 2 m/s 722 mmHg 35%
    21:00 +32°C° 0 mm 1 m/s 723 mmHg 37%
    22:00 +31°C° 0 mm 1 m/s 722 mmHg 38%
    23:00 +30°C° 0 mm 1 m/s 722 mmHg 40%

    Mâine, 24 Iulie, Luni

    Timp Temperatura Precipitaţii Vânt Presiune Umiditate
    00:00 +30°C° 0 mm 1 m/s 722 mmHg 41%
    01:00 +29°C° 0 mm 1 m/s 722 mmHg 43%
    02:00 +29°C° 0 mm 1 m/s 722 mmHg 44%
    03:00 +26°C° 0 mm 0 m/s 721 mmHg 46%
    04:00 +26°C° 0 mm 0 m/s 721 mmHg 46%
    05:00 +26°C° 0 mm 0 m/s 721 mmHg 45%
    06:00 +26°C° 0 mm 0 m/s 721 mmHg 45%
    07:00 +28°C° 0 mm 0 m/s 722 mmHg 39%
    08:00 +32°C° 0 mm 1 m/s 722 mmHg 33%
    09:00 +33°C° 0 mm 1 m/s 722 mmHg 27%
    10:00 +36°C° 0 mm 2 m/s 722 mmHg 25%
    11:00 +37°C° 0 mm 2 m/s 722 mmHg 22%
    12:00 +38°C° 0 mm 3 m/s 722 mmHg 19%
    13:00 +38°C° 0 mm 4 m/s 722 mmHg 19%
    14:00 +38°C° 0 mm 4 m/s 721 mmHg 19%
    15:00 +39°C° 0 mm 5 m/s 721 mmHg 19%
    16:00 +37°C° 0 mm 4 m/s 721 mmHg 20%
    17:00 +37°C° 0 mm 4 m/s 720 mmHg 21%
    18:00 +36°C° 0 mm 3 m/s 720 mmHg 22%
    19:00 +35°C° 0 mm 3 m/s 721 mmHg 25%
    20:00 +34°C° 0 mm 2 m/s 721 mmHg 27%
    21:00 +32°C° 0 mm 1 m/s 721 mmHg 29%
    22:00 +31°C° 0 mm 1 m/s 721 mmHg 31%
    23:00 +30°C° 0 mm 1 m/s 721 mmHg 34%

    Poimâine, 25 Iulie, Marţi

    Timp Temperatura Precipitaţii Vânt Presiune Umiditate
    00:00 +29°C° 0 mm 1 m/s 721 mmHg 36%
    01:00 +29°C° 0 mm 1 m/s 720 mmHg 38%
    02:00 +28°C° 0 mm 1 m/s 720 mmHg 41%
    03:00 +27°C° 0 mm 1 m/s 719 mmHg 43%
    04:00 +27°C° 0 mm 1 m/s 719 mmHg 45%
    05:00 +27°C° 0 mm 1 m/s 719 mmHg 46%
    06:00 +27°C° 0 mm 1 m/s 719 mmHg 47%
    07:00 +29°C° 0 mm 1 m/s 719 mmHg 41%
    08:00 +30°C° 0 mm 1 m/s 720 mmHg 34%
    09:00 +32°C° 0 mm 1 m/s 720 mmHg 27%
    10:00 +34°C° 0 mm 2 m/s 720 mmHg 25%
    11:00 +36°C° 0 mm 3 m/s 720 mmHg 23%
    12:00 +37°C° 0 mm 4 m/s 720 mmHg 20%
    13:00 +37°C° 0 mm 4 m/s 719 mmHg 21%
    14:00 +37°C° 0 mm 5 m/s 719 mmHg 21%
    15:00 +37°C° 0 mm 5 m/s 719 mmHg 22%
    16:00 +36°C° 0 mm 4 m/s 718 mmHg 24%
    17:00 +35°C° 0 mm 4 m/s 718 mmHg 25%
    18:00 +34°C° 0 mm 4 m/s 718 mmHg 27%
    19:00 +33°C° 0 mm 3 m/s 718 mmHg 31%
    20:00 +31°C° 0 mm 2 m/s 718 mmHg 35%
    21:00 +30°C° 0 mm 2 m/s 719 mmHg 39%
    22:00 +29°C° 0 mm 1 m/s 719 mmHg 42%
    23:00 +28°C° 0 mm 1 m/s 719 mmHg 46%

    26 Iulie, Miercuri

    Timp Temperatura Precipitaţii Vânt Presiune Umiditate
    00:00 +27°C° 0 mm 1 m/s 719 mmHg 49%
    01:00 +27°C° 0 mm 1 m/s 718 mmHg 51%
    02:00 +26°C° 0 mm 1 m/s 718 mmHg 54%
    03:00 +26°C° 0 mm 1 m/s 718 mmHg 57%
    04:00 +26°C° 0 mm 1 m/s 718 mmHg 57%
    05:00 +25°C° 0 mm 1 m/s 718 mmHg 58%
    06:00 +25°C° 0 mm 1 m/s 718 mmHg 58%
    07:00 +27°C° 0 mm 1 m/s 718 mmHg 51%
    08:00 +28°C° 0 mm 2 m/s 719 mmHg 43%
    09:00 +30°C° 0 mm 2 m/s 719 mmHg 36%
    10:00 +31°C° 0 mm 3 m/s 719 mmHg 34%
    11:00 +33°C° 0 mm 4 m/s 719 mmHg 32%
    12:00 +34°C° 0 mm 4 m/s 719 mmHg 30%
    13:00 +34°C° 0 mm 4 m/s 719 mmHg 30%
    14:00 +35°C° 0 mm 5 m/s 719 mmHg 30%
    15:00 +35°C° 0 mm 5 m/s 719 mmHg 30%
    16:00 +34°C° 0 mm 4 m/s 719 mmHg 31%
    17:00 +34°C° 0 mm 4 m/s 719 mmHg 32%
    18:00 +33°C° 0 mm 3 m/s 719 mmHg 33%
    19:00 +31°C° 0 mm 3 m/s 719 mmHg 35%
    20:00 +30°C° 0 mm 3 m/s 719 mmHg 38%
    21:00 +30°C° 0 mm 2 m/s 720 mmHg 40%
    22:00 +29°C° 0 mm 2 m/s 720 mmHg 42%
    23:00 +29°C° 0 mm 1 m/s 720 mmHg 43%

    27 Iulie, Joi

    Timp Temperatura Precipitaţii Vânt Presiune Umiditate
    00:00 +28°C° 0 mm 1 m/s 720 mmHg 45%
    01:00 +28°C° 0 mm 1 m/s 719 mmHg 46%
    02:00 +27°C° 0 mm 1 m/s 719 mmHg 48%
    03:00 +27°C° 0 mm 1 m/s 719 mmHg 49%
    04:00 +27°C° 0 mm 1 m/s 719 mmHg 49%
    05:00 +27°C° 0 mm 1 m/s 719 mmHg 49%
    06:00 +27°C° 0 mm 1 m/s 720 mmHg 49%
    07:00 +28°C° 0 mm 1 m/s 720 mmHg 43%
    08:00 +30°C° 0 mm 1 m/s 720 mmHg 38%
    09:00 +31°C° 0 mm 1 m/s 721 mmHg 32%
    10:00 +32°C° 0 mm 2 m/s 721 mmHg 29%
    11:00 +35°C° 0 mm 2 m/s 721 mmHg 26%
    12:00 +36°C° 0 mm 3 m/s 721 mmHg 23%
    13:00 +37°C° 0 mm 3 m/s 721 mmHg 22%
    14:00 +37°C° 0 mm 4 m/s 720 mmHg 21%
    15:00 +38°C° 0 mm 4 m/s 720 mmHg 21%
    16:00 +37°C° 0 mm 4 m/s 720 mmHg 21%
    17:00 +36°C° 0 mm 5 m/s 720 mmHg 22%
    18:00 +36°C° 0 mm 5 m/s 720 mmHg 23%
    19:00 +35°C° 0 mm 4 m/s 720 mmHg 25%
    20:00 +34°C° 0 mm 3 m/s 721 mmHg 26%
    21:00 +32°C° 0 mm 2 m/s 721 mmHg 28%
    22:00 +31°C° 0 mm 2 m/s 721 mmHg 29%
    23:00 +30°C° 0 mm 1 m/s 721 mmHg 30%

    28 Iulie, Vineri

    Timp Temperatura Precipitaţii Vânt Presiune Umiditate
    00:00 +30°C° 0 mm 1 m/s 721 mmHg 32%
    01:00 +29°C° 0 mm 1 m/s 721 mmHg 33%
    02:00 +28°C° 0 mm 1 m/s 720 mmHg 35%
    03:00 +28°C° 0 mm 1 m/s 720 mmHg 37%
    04:00 +28°C° 0 mm 1 m/s 720 mmHg 37%
    05:00 +28°C° 0 mm 1 m/s 721 mmHg 38%
    06:00 +26°C° 0 mm 0 m/s 721 mmHg 38%
    07:00 +30°C° 0 mm 1 m/s 721 mmHg 33%
    08:00 +31°C° 0 mm 1 m/s 722 mmHg 29%
    09:00 +34°C° 0 mm 2 m/s 722 mmHg 24%
    10:00 +36°C° 0 mm 2 m/s 722 mmHg 22%
    11:00 +37°C° 0 mm 3 m/s 722 mmHg 19%
    12:00 +38°C° 0 mm 3 m/s 722 mmHg 17%
    13:00 +40°C° 0 mm 4 m/s 722 mmHg 16%
    14:00 +41°C° 0 mm 4 m/s 722 mmHg 15%
    15:00 +41°C° 0 mm 5 m/s 722 mmHg 14%
    16:00 +40°C° 0 mm 5 m/s 721 mmHg 16%
    17:00 +40°C° 0 mm 6 m/s 721 mmHg 17%
    18:00 +39°C° 0 mm 6 m/s 721 mmHg 18%
    19:00 +37°C° 0 mm 5 m/s 722 mmHg 20%
    20:00 +36°C° 0 mm 4 m/s 722 mmHg 22%
    21:00 +34°C° 0 mm 3 m/s 722 mmHg 25%
    22:00 +34°C° 0 mm 3 m/s 722 mmHg 26%
    23:00 +32°C° 0 mm 2 m/s 722 mmHg 28%
    Arată mai mult